Flag for Venezuela Weather past 2 weeks in Maracay, Venezuela

Now
77 °F

Passing clouds.


Feels Like: 78 °F
Forecast: 69 / 91 °F
Wind: 3 mph from West

Location: Valencia Airport

Current Time: Sep 3, 2015 at 5:27:43 AM

Latest Report: Sep 2, 2015 at 10:30 PM


Visibility: N/A

Pressure: 30.01 "Hg

Humidity: 94%

Dew point: 75 °F

Location of MaracayLocation

Historic Weather in Maracay — Graph

°F

Maracay temperature yesterday

Maximum temperature yesterday: 91 °F (at 12:30 PM)
Minimum temperature yesterday: 75 °F (at 6:30 AM)
Average temperature yesterday: 81 °F

Past Weeks' High & Low Weather Summary

 TemperatureHumidityPressure
High95 °F (Aug 26, 1:30 PM)100% (Aug 26, 11:30 AM)30.09 "Hg (Aug 26, 11:30 AM)
Low73 °F (Aug 31, 1:30 AM)50% (Aug 26, 1:30 PM)29.83 "Hg (Aug 24, 4:30 PM)
Average83 °F77%29.96 "Hg
* Reported Aug 18 10:30 PM — Sep 2 10:30 PM, Maracay, Weather by CustomWeather, © 2015

Note: Actual official high and low records may vary slightly from our data, if they occured in-between our weather recording intervals... More about our weather records

Advertising

Maracay weather history for previous 24 hours

 ConditionsComfort  
Time TempWeatherWind HumidityBarometerVisibility
10:30 PM
Wed, Sep 2
77 °FPassing clouds.3 mph94%30.01 "HgN/A
9:30 PM77 °FPassing clouds.6 mph94%30.01 "HgN/A
8:30 PM79 °FPartly cloudy.5 mph89%29.98 "HgN/A
7:30 PM79 °FPartly cloudy.1 mph89%29.95 "HgN/A
6:30 PM79 °FPassing clouds.6 mph89%29.95 "HgN/A
5:30 PM79 °FOvercast.10 mph89%29.92 "HgN/A
4:30 PM79 °FPassing clouds.12 mph89%29.92 "Hg6 mi
3:30 PM84 °FWarm.12 mph79%29.92 "HgN/A
2:30 PM86 °FPassing clouds.9 mph70%29.95 "HgN/A
1:30 PM88 °FPassing clouds.6 mph66%29.95 "HgN/A
12:30 PM91 °FPassing clouds.5 mph56%30.01 "HgN/A
11:30 AM90 °FPartly sunny.7 mph59%30.04 "HgN/A
10:30 AM88 °FScattered clouds.6 mph62%30.07 "HgN/A
9:30 AM86 °FPassing clouds.3 mph66%30.07 "HgN/A
8:30 AM81 °FPassing clouds.No wind79%30.04 "HgN/A
7:30 AM77 °FPassing clouds.3 mph89%30.04 "HgN/A
6:30 AM75 °FMild.3 mph89%30.01 "HgN/A
5:30 AM77 °FScattered clouds.5 mph89%29.98 "HgN/A
Weather by CustomWeather, © 2015

See weather overviewHow to use our weather pages